Location: *
(45.1333°S, 169.6333°W)
Time: 19:00:19
(UTC+00:00)

STARLINK-4003 - Pass Details

Date: 26 May 2022
Orbit: 348 x 351 km, 53.2° (Epoch: 06 July)

Event Time Altitude Azimuth Distance (km) Brightness Sun altitude
Rises 04:26:43 0° 280° (W) 2,179 8.7 -6.7°
Reaches altitude 10° 04:28:51 10° 270° (W) 1,338 6.9 -7.0°
Maximum altitude 04:31:36 33° 203° (SSW) 637 4.0 -7.5°
Drops below altitude 10° 04:34:22 10° 136° (SE) 1,347 5.0 -7.9°
Enters shadow 04:34:28 - 135° (SE) 1,388 5.1 -7.9°
